Sandpoint, ID

8:53 AM PDT on June 24, 2018 (GMT -0700)
Sandpoint

Weather History for KSZT - September, 2017

Change the Weather History Date:

Thursday, September 14, 2017

  Actual Average Record
Temperature  
Mean Temperature 56 °F -  
Max Temperature 62 °F 71 °F 87 °F (2013)
Min Temperature 51 °F 40 °F 21 °F (1970)
Degree Days  
Heating Degree Days 8    
Growing Degree Days 6 (Base 50)    
Moisture  
Dew Point 33 °F    
Average Humidity 40    
Maximum Humidity 47    
Minimum Humidity 32    
Precipitation  
Precipitation 0.00 in - - ()
Sea Level Pressure  
Sea Level Pressure 29.94 in    
Wind  
Wind Speed 14 mph (NNE)    
Max Wind Speed 22 mph    
Max Gust Speed 29 mph    
Visibility 10 miles    
Events      
Averages and records for this station are not official NWS values.
T = Trace of Precipitation, MM = Missing Value Source: NWS Daily Summary

Daily Weather History Graph

Daily Weather History Graph

Search for Another Location

Airport or City:

Astronomy

Sep. 14, 2017 Rise Set
Actual Time 6:22 AM PDT 7:00 PM PDT
Civil Twilight 5:50 AM PDT 7:31 PM PDT
Nautical Twilight 5:13 AM PDT 8:08 PM PDT
Astronomical Twilight 4:34 AM PDT 8:47 PM PDT
Moon 12:02 AM PDT (9/14) 3:42 PM PDT (9/14)
Length of Visible Light 13h 40m
Length of Day
12h 37m
Waning Crescent, 33% of the Moon is Illuminated
Sep 14
Waning Crescent
Sep 19
New
Sep 27
First Quarter
Oct 5
Full
Oct 12
Last Quarter

Hourly Weather History & Observations

Time (PDT) Temp. Dew Point Humidity Pressure Visibility Wind Dir Wind Speed Gust Speed Precip Events Conditions
12:15 AM 57.2 °F 33.8 °F 41% 29.82 in 10.0 mi North 9.2 mph - N/A   Clear
12:35 AM 57.2 °F 33.8 °F 41% 29.83 in 10.0 mi NNE 12.7 mph - N/A   Clear
12:55 AM 59.0 °F 33.8 °F 39% 29.83 in 10.0 mi North 13.8 mph 18.4 mph N/A   Clear
1:15 AM 59.0 °F 35.6 °F 42% 29.83 in 10.0 mi NNE 16.1 mph 20.7 mph N/A   Clear
1:35 AM 59.0 °F 35.6 °F 42% 29.84 in 10.0 mi NNE 11.5 mph 20.7 mph N/A   Clear
1:55 AM 57.2 °F 35.6 °F 44% 29.84 in 10.0 mi NNE 13.8 mph 20.7 mph N/A   Clear
2:15 AM 57.2 °F 35.6 °F 44% 29.84 in 10.0 mi NNE 16.1 mph 24.2 mph N/A   Clear
2:35 AM 57.2 °F 35.6 °F 44% 29.84 in 10.0 mi NNE 15.0 mph - N/A   Scattered Clouds
2:55 AM 55.4 °F 35.6 °F 47% 29.85 in 10.0 mi NNE 15.0 mph 25.3 mph N/A   Clear
3:15 AM 55.4 °F 35.6 °F 47% 29.85 in 10.0 mi NNE 18.4 mph 23.0 mph N/A   Clear
3:35 AM 57.2 °F 35.6 °F 44% 29.86 in 10.0 mi NNE 16.1 mph 21.9 mph N/A   Clear
3:55 AM 57.2 °F 35.6 °F 44% 29.86 in 10.0 mi NNE 18.4 mph 23.0 mph N/A   Clear
4:15 AM 57.2 °F 33.8 °F 41% 29.87 in 10.0 mi NNE 21.9 mph 26.5 mph N/A   Clear
4:35 AM 55.4 °F 33.8 °F 44% 29.87 in 10.0 mi NNE 17.3 mph 25.3 mph N/A   Clear
4:55 AM 55.4 °F 33.8 °F 44% 29.88 in 10.0 mi NNE 17.3 mph 21.9 mph N/A   Clear
5:15 AM 55.4 °F 33.8 °F 44% 29.88 in 10.0 mi NNE 16.1 mph 21.9 mph N/A   Clear
5:35 AM 55.4 °F 33.8 °F 44% 29.89 in 10.0 mi NNE 16.1 mph 23.0 mph N/A   Clear
5:55 AM 55.4 °F 33.8 °F 44% 29.89 in 10.0 mi NNE 18.4 mph 24.2 mph N/A   Clear
6:15 AM 55.4 °F 33.8 °F 44% 29.90 in 10.0 mi NNE 16.1 mph 21.9 mph N/A   Clear
6:35 AM 55.4 °F 33.8 °F 44% 29.90 in 10.0 mi NNE 13.8 mph 23.0 mph N/A   Mostly Cloudy
6:55 AM 55.4 °F 33.8 °F 44% 29.90 in 10.0 mi NNE 15.0 mph 25.3 mph N/A   Mostly Cloudy
7:15 AM 55.4 °F 33.8 °F 44% 29.91 in 10.0 mi NNE 17.3 mph 23.0 mph N/A   Scattered Clouds
7:35 AM 55.4 °F 33.8 °F 44% 29.91 in 10.0 mi NNE 16.1 mph 24.2 mph N/A   Scattered Clouds
7:55 AM 55.4 °F 33.8 °F 44% 29.92 in 10.0 mi NNE 15.0 mph 23.0 mph N/A   Clear
8:15 AM 55.4 °F 33.8 °F 44% 29.92 in 10.0 mi NNE 19.6 mph 24.2 mph N/A   Clear
8:35 AM 55.4 °F 33.8 °F 44% 29.93 in 10.0 mi NNE 20.7 mph 27.6 mph N/A   Clear
8:55 AM 55.4 °F 32.0 °F 41% 29.93 in 10.0 mi NNE 18.4 mph 25.3 mph N/A   Clear
9:15 AM 57.2 °F 32.0 °F 38% 29.94 in 10.0 mi NNE 17.3 mph 24.2 mph N/A   Scattered Clouds
9:35 AM 57.2 °F 32.0 °F 38% 29.94 in 10.0 mi NNE 20.7 mph 26.5 mph N/A   Clear
9:55 AM 59.0 °F 32.0 °F 36% 29.94 in 10.0 mi NNE 21.9 mph 28.8 mph N/A   Clear
10:15 AM 59.0 °F 32.0 °F 36% 29.94 in 10.0 mi NNE 18.4 mph 25.3 mph N/A   Clear
10:35 AM 59.0 °F 32.0 °F 36% 29.95 in 10.0 mi North 20.7 mph 26.5 mph N/A   Clear
10:55 AM 59.0 °F 32.0 °F 36% 29.95 in 10.0 mi NNE 16.1 mph 28.8 mph N/A   Clear
11:15 AM 59.0 °F 32.0 °F 36% 29.95 in 10.0 mi NNE 16.1 mph 25.3 mph N/A   Clear
11:35 AM 59.0 °F 32.0 °F 36% 29.95 in 10.0 mi North 13.8 mph 24.2 mph N/A   Scattered Clouds
11:55 AM 59.0 °F 32.0 °F 36% 29.95 in 10.0 mi North 13.8 mph 23.0 mph N/A   Scattered Clouds
12:15 PM 60.8 °F 32.0 °F 34% 29.95 in 10.0 mi North 15.0 mph 20.7 mph N/A   Clear
12:35 PM 60.8 °F 32.0 °F 34% 29.95 in 10.0 mi North 16.1 mph 21.9 mph N/A   Clear
12:55 PM 60.8 °F 32.0 °F 34% 29.95 in 10.0 mi North 17.3 mph 23.0 mph N/A   Clear
1:15 PM 60.8 °F 32.0 °F 34% 29.95 in 10.0 mi North 15.0 mph 23.0 mph N/A   Clear
1:35 PM 62.6 °F 32.0 °F 32% 29.95 in 10.0 mi North 15.0 mph 25.3 mph N/A   Clear
1:55 PM 62.6 °F 32.0 °F 32% 29.95 in 10.0 mi North 16.1 mph 21.9 mph N/A   Clear
2:15 PM 62.6 °F 32.0 °F 32% 29.95 in 10.0 mi North 17.3 mph 24.2 mph N/A   Clear
2:35 PM 60.8 °F 32.0 °F 34% 29.95 in 10.0 mi NNE 15.0 mph 21.9 mph N/A   Clear
2:55 PM 62.6 °F 32.0 °F 32% 29.95 in 10.0 mi NNE 16.1 mph 23.0 mph N/A   Clear
3:15 PM 60.8 °F 32.0 °F 34% 29.95 in 10.0 mi North 15.0 mph 24.2 mph N/A   Clear
3:35 PM 60.8 °F 32.0 °F 34% 29.95 in 10.0 mi North 16.1 mph 24.2 mph N/A   Clear
3:55 PM 60.8 °F 32.0 °F 34% 29.95 in 10.0 mi North 16.1 mph 20.7 mph N/A   Clear
4:15 PM 60.8 °F 32.0 °F 34% 29.96 in 10.0 mi North 15.0 mph 20.7 mph N/A   Clear
4:35 PM 60.8 °F 32.0 °F 34% 29.96 in 10.0 mi North 10.4 mph 17.3 mph N/A   Clear
4:55 PM 60.8 °F 32.0 °F 34% 29.96 in 10.0 mi NNE 10.4 mph - N/A   Clear
5:15 PM 60.8 °F 32.0 °F 34% 29.97 in 10.0 mi NNE 9.2 mph 19.6 mph N/A   Clear
5:35 PM 60.8 °F 32.0 °F 34% 29.97 in 7.0 mi NNE 12.7 mph 19.6 mph N/A   Clear
5:55 PM 60.8 °F 32.0 °F 34% 29.97 in 10.0 mi NNE 12.7 mph - N/A   Clear
6:15 PM 60.8 °F 32.0 °F 34% 29.98 in 10.0 mi NNE 10.4 mph 18.4 mph N/A   Clear
6:35 PM 59.0 °F 32.0 °F 36% 29.98 in 10.0 mi NNE 10.4 mph - N/A   Clear
6:55 PM 59.0 °F 32.0 °F 36% 29.98 in 10.0 mi NNE 12.7 mph 17.3 mph N/A   Clear
7:15 PM 59.0 °F 32.0 °F 36% 29.99 in 10.0 mi NNE 11.5 mph 16.1 mph N/A   Mostly Cloudy
7:35 PM 57.2 °F 32.0 °F 38% 29.99 in 10.0 mi NNE 10.4 mph - N/A   Mostly Cloudy
7:55 PM 55.4 °F 32.0 °F 41% 29.99 in 10.0 mi NNE 9.2 mph - N/A   Overcast
8:15 PM 55.4 °F 32.0 °F 41% 29.99 in 10.0 mi NNE 10.4 mph - N/A   Overcast
8:35 PM 55.4 °F 32.0 °F 41% 30.00 in 10.0 mi NNE 9.2 mph - N/A   Overcast
8:55 PM 55.4 °F 32.0 °F 41% 30.00 in 10.0 mi NNE 11.5 mph - N/A   Overcast
9:15 PM 53.6 °F 32.0 °F 44% 30.00 in 10.0 mi NNE 9.2 mph - N/A   Scattered Clouds
9:35 PM 53.6 °F 32.0 °F 44% 30.01 in 10.0 mi NNE 10.4 mph - N/A   Clear
9:55 PM 51.8 °F 32.0 °F 47% 30.01 in 10.0 mi NNE 11.5 mph - N/A   Scattered Clouds
10:15 PM 51.8 °F 32.0 °F 47% 30.02 in 10.0 mi NNE 10.4 mph - N/A   Clear
10:35 PM 51.8 °F 32.0 °F 47% 30.02 in 10.0 mi NNE 11.5 mph - N/A   Clear
10:55 PM 51.8 °F 32.0 °F 47% 30.02 in 10.0 mi NNE 12.7 mph - N/A   Clear
11:15 PM 51.8 °F 32.0 °F 47% 30.02 in 10.0 mi NNE 10.4 mph - N/A   Clear
11:35 PM 51.8 °F 32.0 °F 47% 30.02 in 10.0 mi NNE 11.5 mph 17.3 mph N/A   Clear
11:55 PM 51.8 °F 30.2 °F 44% 30.03 in 10.0 mi NNE 12.7 mph - N/A   Clear